Regional Weather Roundup
Issued by NWS

Home | Current Version | Previous Version | Text Only | Print | Product List | Glossary Off
Versions: 1 2 3 4 5 6 7 8 9 10 11 12 13 14 15 16 17 18 19 20 21 22 23 24 25 26 27

000
ASUS45 KPSR 191210
RWRAZ

ARIZONA HOURLY REGIONAL WEATHER ROUNDUP
NATIONAL WEATHER SERVICE PHOENIX AZ
500 AM MST SAT AUG 19 2017

NOTE: FAIR INDICATES FEW OR NO CLOUDS BELOW 12,000 FEET WITH NO
SIGNIFICANT WEATHER AND/OR OBSTRUCTIONS TO VISIBILITY.

AZZ001>003-036-191300-
NORTHWEST ARIZONA

CITY           SKY/WX    TMP DP  RH WIND       PRES   REMARKS
BULLHEAD CITY  CLEAR     86  36  16 CALM      29.81S
KINGMAN        CLEAR     68  36  30 SE10      30.03S
6HR MIN TEMP:  65; 6HR MAX TEMP:  79;

$$

AZZ004>008-015-016-018-191300-
NORTH CENTRAL ARIZONA

CITY           SKY/WX    TMP DP  RH WIND       PRES   REMARKS
GRAND CANYON   CLEAR     43  34  70 CALM      30.27S
6HR MIN TEMP:  43; 6HR MAX TEMP:  53;

WILLIAMS       CLEAR     48  37  66 SE7       30.28S
PRESCOTT       CLEAR     59  39  47 S9        30.16S
6HR MIN TEMP:  57; 6HR MAX TEMP:  68;

FLAGSTAFF      PTCLDY    51  34  52 S3        30.30S
6HR MIN TEMP:  50; 6HR MAX TEMP:  54;

PAYSON           N/A     63  32  31 CALM      30.18R
PAGE           CLEAR     75  37  25 CALM      30.06R
6HR MIN TEMP:  72; 6HR MAX TEMP:  84;

$$

AZZ009>014-017-191300-
NORTHEAST ARIZONA

CITY           SKY/WX    TMP DP  RH WIND       PRES   REMARKS
WINSLOW        CLEAR     60  36  40 E6        30.15R
6HR MIN TEMP:  57; 6HR MAX TEMP:  72;

SAINT JOHNS    PTCLDY    59  39  47 S6        30.21S
6HR MIN TEMP:  58; 6HR MAX TEMP:  73;

WINDOW ROCK    CLEAR     45  31  58 S3        30.26S
6HR MIN TEMP:  45; 6HR MAX TEMP:  58;

SHOW LOW       PTCLDY    57  39  51 S7        30.26S
$$

AZZ540-542>544-546-548-191300-
GREATER PHOENIX AREA

CITY           SKY/WX    TMP DP  RH WIND       PRES   REMARKS
PHOENIX        PTCLDY    84  49  29 E5        29.85R
6HR MIN TEMP:  83; 6HR MAX TEMP:  95;

BUCKEYE        CLEAR     75  45  33 NE3       29.87R
LUKE AFB       CLEAR     79  51  37 CALM      29.86R
6HR MIN TEMP:  78; 6HR MAX TEMP:  88;

DEER VALLEY    CLEAR     77  36  22 N3        29.88R
6HR MIN TEMP:  76; 6HR MAX TEMP:  87;

SCOTTSDALE     CLEAR     79  44  28 CALM      29.90R
6HR MIN TEMP:  77; 6HR MAX TEMP:  89;

MESA-GATEWAY   CLEAR     73  52  46 SE5       29.90R
$$

AZZ539-553-191300-
SOUTHWEST MARICOPA COUNTY AND PINAL COUNTY

CITY           SKY/WX    TMP DP  RH WIND       PRES   REMARKS
CASA GRANDE    PTCLDY    79  54  41 CALM      29.91R
6HR MIN TEMP:  79; 6HR MAX TEMP:  89; 6HR PCP: TRACE;

GILA BEND      FAIR      79  50  35 S8        29.85R
6HR MIN TEMP:  78; 6HR MAX TEMP:  92;

$$

AZZ503-504-507>509-191300-
SOUTHEAST ARIZONA

CITY           SKY/WX    TMP DP  RH WIND       PRES   REMARKS
TUCSON         NOT AVBL
DAVIS-MONTHAN  CLEAR     73  47  38 S8        30.00S
6HR MIN TEMP:  73; 6HR MAX TEMP:  81;

NOGALES        MOCLDY    67  55  65 CALM      30.11S
6HR MIN TEMP:  66; 6HR MAX TEMP:  73;

SIERRA VISTA   CLOUDY    69  51  52 CALM      30.16R
6HR MIN TEMP:  67; 6HR MAX TEMP:  77;

DOUGLAS        CLOUDY    72  64  76 N3        30.10F
6HR MIN TEMP:  72; 6HR MAX TEMP:  77;

SAFFORD        MOCLDY    69  44  40 E5        30.00S
6HR MIN TEMP:  67; 6HR MAX TEMP:  81;

$$

AZZ532-191300-
SOUTHWEST ARIZONA

CITY           SKY/WX    TMP DP  RH WIND       PRES   REMARKS
YUMA           CLEAR     83  50  31 SE3       29.80R
6HR MIN TEMP:  82; 6HR MAX TEMP:  89;

$$

CAZ041-043-047-048-061-525>527-560>570-191300-
SOUTHERN CALIFORNIA

CITY           SKY/WX    TMP DP  RH WIND       PRES   REMARKS
DOWNTOWN L.A.  CLOUDY    67  60  78 CALM      29.94S
6HR MIN TEMP:  67; 6HR MAX TEMP:  68;

L.A. AIRPORT   CLOUDY    67  63  87 W3        29.94S
6HR MIN TEMP:  66; 6HR MAX TEMP:  67;

SAN DIEGO      CLOUDY    68  61  78 SW3       29.95F
6HR MIN TEMP:  68; 6HR MAX TEMP:  69;

BURBANK        MOCLDY    63  59  87 CALM      29.94S
6HR MIN TEMP:  63; 6HR MAX TEMP:  67;

ONTARIO        CLEAR     64  60  87 W6        29.95R
6HR MIN TEMP:  64; 6HR MAX TEMP:  71;

RIVERSIDE      CLEAR     63  61  93 W5        29.95R
6HR MIN TEMP:  63; 6HR MAX TEMP:  70;

PALM SPRINGS   CLEAR     81  60  48 CALM      29.82S
6HR MIN TEMP:  80; 6HR MAX TEMP:  91;

EL CENTRO NAS  CLEAR     76  51  41 E7        29.79R
6HR MIN TEMP:  75; 6HR MAX TEMP:  89;

IMPERIAL       CLEAR     81  58  45 SE6       29.77R
6HR MIN TEMP:  81; 6HR MAX TEMP:  90;

BLYTHE         CLEAR     83  52  34 SE6       29.80S
6HR MIN TEMP:  81; 6HR MAX TEMP:  94;

NEEDLES        CLEAR     84  36  18 W6        29.83R
6HR MIN TEMP:  84; 6HR MAX TEMP:  95;

$$

NVZ020-UTZ003-191300-
SOUTHERN NEVADA-UTAH

CITY           SKY/WX    TMP DP  RH WIND       PRES   REMARKS
LAS VEGAS      CLEAR     83  39  21 W5        29.90S
6HR MIN TEMP:  82; 6HR MAX TEMP:  93;

SALT LAKE CITY PTCLDY    67  43  41 S6        30.05S
6HR MIN TEMP:  66; 6HR MAX TEMP:  76;

$$

NMZ009-TXZ055-191300-
NEW MEXICO-WEST TEXAS

CITY           SKY/WX    TMP DP  RH WIND       PRES   REMARKS
ALBUQUERQUE    MOCLDY    70  51  51 SE7       30.18S
6HR MIN TEMP:  70; 6HR MAX TEMP:  78;

EL PASO        CLOUDY    72  62  71 S6        30.12R
6HR MIN TEMP:  72; 6HR MAX TEMP:  77;

$$


........................KEY........................
SKY/WX - SKY CONDITION/WEATHER
TMP    - TEMPERATURE IN FAHRENHEIT
DP     - DEW POINT IN FAHRENHEIT
RH     - RELATIVE HUMIDITY IN PERCENT
WIND   - DIRECTION AND SPEED IN MILES PER HOUR (MPH)
VRB    - VARIABLE WIND DIRECTION
PRES   - MEAN SEA LEVEL PRESSURE IN INCHES OF MERCURY
         F - FALLING PRESSURE   R - RISING PRESSURE
         S - STEADY PRESSURE
VSB    - VISIBILITY IN MILES
HX     - HEAT INDEX IN FAHRENHEIT
WCI    - WIND CHILL INDEX IN FAHRENHEIT
TC     - TEMPERATURE IN CELSIUS WHICH IS ALSO KNOWN AS
         TEMPERATURE IN CENTIGRADE
AFB    - AIR FORCE BASE
         LUKE AFB IS LUKE AIR FORCE BASE
         DAVIS-MONTHAN IS DAVIS-MONTHAN AIR FORCE BASE
NAS    - NAVAL AIR STATION
         EL CENTRO NAS IS EL CENTRO NAVAL AIR STATION
N/A    - NOT AVAILABLE





USA.gov is the U.S. government's official web portal to all federal, state and local government web resources and services.